Location: Alma
(34.4195°N, 97.6123°W)
Time: 02:58:02
(UTC+00:00)

ISS - Visible Passes

Search period start: 22 May 2024 00:00
Search period end: 01 June 2024 00:00
Orbit: 409 x 414 km, 51.6° (Epoch: 21 May)

Date Brightness Start Highest point End Pass type
(mag) Time Alt. Az. Time Alt. Az. Time Alt. Az.
22 May -0.7 04:23:01 10° N 04:23:58 13° NNE 04:23:58 13° NNE visible
24 May -1.2 04:18:42 10° NNW 04:20:11 20° N 04:20:11 20° N visible
25 May -1.6 03:29:04 10° NNW 03:31:25 18° NNE 03:31:53 17° NE visible
26 May -1.1 02:39:47 10° N 02:41:03 12° NNE 02:42:19 10° NE visible
26 May -1.6 04:14:47 10° NW 04:16:22 26° NW 04:16:22 26° NW visible
27 May -3.0 03:24:45 10° NW 03:27:55 41° NE 03:28:04 41° NE visible
28 May -2.0 02:34:51 10° NNW 02:37:36 23° NE 02:39:46 13° E visible
28 May -1.3 04:11:17 10° WNW 04:12:33 18° W 04:12:33 18° W visible
29 May -3.7 03:20:45 10° NW 03:24:01 60° SW 03:24:16 58° SSW visible
30 May -3.6 02:30:26 10° NW 02:33:44 63° NE 02:36:00 18° ESE visible
31 May -1.8 03:17:20 10° W 03:19:45 19° SW 03:20:33 17° SSW visible
